TimeCST,TemperatureF,Dew PointF,Humidity,Sea Level PressureIn,VisibilityMPH,Wind Direction,Wind SpeedMPH,Gust SpeedMPH,PrecipitationIn,Events,Conditions,WindDirDegrees,DateUTC
12:00 AM,-36,-43,49,30.18,15,Calm,Calm,,,Snow,Snow,,2012-11-23 06:00:00
12:00 AM,-36.4,-43.6,67,30.18,15.0,Calm,Calm,-,N/A,,Clear,0,2012-11-23 06:00:00
1:00 AM,-36.4,-43.6,67,30.18,15.0,Calm,Calm,-,N/A,,Clear,0,2012-11-23 07:00:00
2:00 AM,-36.4,-43.6,67,30.17,15.0,Calm,Calm,-,N/A,,Clear,0,2012-11-23 08:00:00
3:00 AM,-36.4,-43.6,67,30.17,15.0,Calm,Calm,-,N/A,,Clear,0,2012-11-23 09:00:00
4:00 AM,-36.4,-43.6,67,30.16,15.0,Calm,Calm,-,N/A,,Clear,0,2012-11-23 10:00:00
5:00 AM,-36.4,-43.6,67,30.15,15.0,Calm,Calm,-,N/A,,Clear,0,2012-11-23 11:00:00
6:00 AM,-37,-44,48,30.13,15,Calm,Calm,,,Snow,Snow,,2012-11-23 12:00:00
6:00 AM,-36.4,-43.6,67,30.13,15.0,Calm,Calm,-,N/A,,Clear,0,2012-11-23 12:00:00
7:00 AM,-36.4,-43.6,67,30.12,15.0,Calm,Calm,-,N/A,,Clear,0,2012-11-23 13:00:00
8:00 AM,-36.4,-43.6,67,30.11,15.0,Calm,Calm,-,N/A,,Clear,0,2012-11-23 14:00:00
9:00 AM,-38.2,-43.6,74,30.09,15.0,Calm,Calm,-,N/A,,Clear,0,2012-11-23 15:00:00
10:00 AM,-36.4,-43.6,67,30.08,15.0,Calm,Calm,-,N/A,,Partly Cloudy,0,2012-11-23 16:00:00
11:00 AM,-36.4,-43.6,67,30.07,15.0,Calm,Calm,-,N/A,,Partly Cloudy,0,2012-11-23 17:00:00
12:00 PM,-37,-44,49,30.06,15,Calm,Calm,,,Snow,Snow,,2012-11-23 18:00:00
12:00 PM,-36.4,-43.6,67,30.06,15.0,Calm,Calm,-,N/A,,Partly Cloudy,0,2012-11-23 18:00:00
1:00 PM,-38.2,-45.4,67,30.06,15.0,Calm,Calm,-,N/A,,Partly Cloudy,0,2012-11-23 19:00:00
2:00 PM,-36.4,-43.6,67,30.05,15.0,Calm,Calm,-,N/A,,Clear,0,2012-11-23 20:00:00
3:00 PM,-36.4,-43.6,67,30.04,8.0,Calm,Calm,-,N/A,,Clear,0,2012-11-23 21:00:00
4:00 PM,-38.2,-43.6,74,30.03,10.0,Calm,Calm,-,N/A,,Clear,0,2012-11-23 22:00:00
5:00 PM,-36.4,-43.6,67,30.03,10.0,Calm,Calm,-,N/A,,Clear,0,2012-11-23 23:00:00
6:00 PM,-36,-43,49,30.02,6,Calm,Calm,,,Snow,Snow,,2012-11-24 00:00:00
6:00 PM,-36.4,-43.6,67,30.02,6.0,Calm,Calm,-,N/A,,Ice Crystals,0,2012-11-24 00:00:00
7:00 PM,-36.4,-43.6,67,30.01,10.0,Calm,Calm,-,N/A,,Clear,0,2012-11-24 01:00:00
8:00 PM,-36.4,-43.6,67,30.00,10.0,Calm,Calm,-,N/A,,Clear,0,2012-11-24 02:00:00
9:00 PM,-36.4,-43.6,67,29.99,15.0,Calm,Calm,-,N/A,,Clear,0,2012-11-24 03:00:00